NapervilleWeather.com

Find the Weather for any City, State  
or Zipcode, or Country:

Naperville, IL Weather
Local Radar

Local Radar

Graphs, Details
Graphs and Gauges
Detailed Weather
Detailed Reports
Ajax Version (old)
Davis Summary
Davis Current Weather Graphs
Davis 24 Hour Weather History
Cumulus

CW7164 Data

Weather Underground
www.awekas.at
Automatic Weather Map System
Latest Naperville, Illinois, weather
Weather For You
Maps
Temperature
Heat Index
Windchill
Humidity
Radar
Dew Point
Wind
Visibility
Visible Satellite
Satellite
Fronts
Snow Depth
Jet Stream
Flight Rules
Forecast Maps
Temperature Forecast
Maximum Temperature Forecast
Minimum Temperature Forecast
Dewpoint Forecast
Prevalent Weather
12Hr Probability of Precip.
Sky Cover
Health Maps
UV Forecast
Air Quality
Peak Air Quality Index
Weather Station
Davis Instruments Vantage Pro2
Current Conditions [Select Refresh to Update]

Updated: 4:08am on 9/2/14

(location)
Currently:
68.4°F

Clear
Mostly Cloudy

High: 72.1 °F< 
(12:00am
Low: 68.4 °F 
(3:59am)
Wind: WNW 0 mph
Calm
Gust: 0 mph
Today's High Wind: 3 mph (12:32am)
Humidity: 96%
Pressure: 29.86 in  (Steady
Pressure Rate: 0.010 in/hr
Dew Point: 67.2°F
Wind Chill: 68.4 °F
Heat Index (feels like): 75.0 °F
Comfort Level: Comfortable
Temperature Rate:  -0.55°F/hr
 
5 Day Forecast
 
Tue Wed Thu Fri Sat
Clear Clear Clear Clear Clear
Partly Cloudy Partly Cloudy Partly Cloudy Chance T-storms Partly Cloudy
79 88 88 82 73
63 66 72 55 52

Records and Normals
 
Temperature Forecast Normal Record
High 79 80 95
(2008)
Low 63 59 46
(2001)
 
 
Weather Advisories
No Warnings
Full Advisory Text...
Weather Map

Web Cam

Almanac
 
Sunrise:  
6:21am
Moonrise: 
2:10pm

Moon Phase:
47%

Sunset: 
7:26pm
Moonset:  
---
 Star Chart...
Rainfall Totals
Hourly Rain 0.00 in
Daily Rain: 0.00 in
Monthly Rain: 0.07 in
Yearly Rain: 27.39 in
Normal Rain, month to date: 0.06 in
Normal Rain, year to date: 22.68 in
Local Weather Exchange Network
Station ID City 
(Click for Map Location)
Neighborhood 
(Click for History)
Last Update (Date & Time) Temperature
 ()
Dew
Point ()
Humidity 
(%)
Wind 
(mph)
from the Wind Gust 
(mph) 
Pressure(in) Hourly
Rain(in)
KILNAPER15 Naperville Indian Hill Near Jefferson JHS 09/02 03:55:09 68.0 66.0 95 0 WSW 0 29.83 0.00
KILNAPER25 Naperville brushhill-w 09/02 03:44:19 68.8 67.0 93 0 West 0 29.82 0.00
KILNAPER24 Naperville Brush Hill 09/02 03:43:01 68.7 67.0 95 0 SSE 0 29.77 0.00
KILWARRE4 Warrenville Cerny Park 09/02 03:54:53 68.7 68.0 99 0 South 0 30.03 0.00
KILNAPER19 Naperville Brookdale Lakes 09/02 03:55:07 68.5 67.0 95 0 NW 0 29.84 0.00
KILNAPER7 Naperville NapervilleWeather.com Near Ogden and Naper Blvd 09/02 03:55:04 68.6 67.0 95 0 WNW 0 29.86 0.00
KILWARRE2 Warrenville Warrenville Neighborhood Weather 09/02 03:55:02 68.2 67.0 95 0 WNW 0 29.82 0.00
KILNAPER23 Naperville Naper Blvd at BNSF RR 09/02 03:54:53 66.9 66.0 96 0 WNW 0 29.85 0.00
KILNAPER9 Naperville 75th St. / Modaff Area 09/02 03:55:05 66.2 65.0 97 0 ESE 0 29.83 0.00
KILWHEAT8 Wheaton Wheaton Sanitary District 09/02 03:52:12 68.6 68.0 96 0 SW 0 29.84 0.00
KILWHEAT11 Wheaton Wheaton SW Orth Ct 09/02 03:55:09 70.2 66.0 87 0 NE 0 29.98 0.00
KILLOMBA6 Wheaton Danada West 09/02 03:54:09 68.1 63.0 85 0 WSW 0 29.86 0.00
KILNAPER16 Naperville SE Naperville / NE Clow Arpt 09/02 03:55:02 67.0 65.0 93 0 North 0 29.86 0.00
KILNAPER22 Naperville Willow Ridge 09/02 03:41:03 67.3 67.0 99 0 SSW 0 29.68 0.00
KILWHEAT5 Wheaton N9ABF - West Wheaton 09/02 03:47:07 67.5 65.0 90 0 WNW 0 29.85 0.00
KILWINFI2 Winfield Winfield Heights (SarahNet) 09/02 03:45:59 67.7 66.0 94 0 South 0 29.83 0.00
KILWOODR4 Woodridge Woodridge Neighborhood Weather 09/02 03:54:15 67.5 64.0 88 0 WNW 0 29.82 0.00
KILWINFI3 Winfield Fredericksburg Farm 09/02 03:55:06 80.3 71.0 74 1 East 8 29.65 0.00
KILWHEAT10 Wheaton Wheaton College 09/02 03:50:16 68.4 67.0 95 2 West 3 29.82 0.00
KILWOODR2 Woodridge Woodridge 09/02 03:55:07 67.8 66.0 95 0 WSW 0 29.72 0.00
KILBATAV5 Batavia Fermi National Accelerator Laboratory 09/02 03:53:53 67.5 66.0 94 0 West 0 29.80 0.00
KILGLENE1 Glen Ellyn Butterfield West 09/02 03:53:08 66.9 65.0 94 0 West 0 29.84 0.00
KILBOLIN15 Bolingbrook Winding Meadows 09/02 03:55:10 67.3 9.0 0 0 SSW 0 29.90 0.00
KILBOLIN20 Bolingbrook Bolingbrook - Royce Road 09/02 03:54:46 72.8 66.0 81 1 SSE 1 29.20 0.00
KILDOWNE3 Downers Grove Maple Woods West 09/02 03:55:00 70.3 70.0 98 0 NNE 0 29.89 0.00
MD0023 Glen Ellyn APRSWXNET Glen Ellyn IL US 09/02 03:26:00 67.0 65.0 94 0 West 0 29.85 0.00
KILBOLIN12 Bolingbrook UnderTheThunder HQ 09/02 03:48:07 67.6 65.0 92 0 WNW 0 29.84 0.00
KILBOLIN13 Bolingbrook UnderTheThunder.org Van 09/02 03:52:53 74.2 61.0 63 0 North 0 29.80 0.00
KILAUROR22 Aurora Lakewood Valley 09/02 03:41:37 67.3 67.0 99 2 NW 0 29.60 0.00
KILNAPER4 Naperville 1.1 mi.West. of Rt 59 & 103rd St. 09/02 03:54:09 68.1 66.0 94 0 North 0 29.77 0.00
KILCHICA63 Glen Ellyn Glen Ellyn Neighborhood Weather 09/02 03:53:54 74.1 0.0 0 0 North 0 0.00 0.00
KILAUROR23 Aurora Summerlin 09/02 03:53:34 67.6 66.0 93 2 West 0 29.71 0.00
KILGLENE7 Glen Ellyn Glen Ellyn Civic Center 09/02 03:49:48 69.3 68.0 95 2 WSW 4 29.88 0.00
KILDOWNE6 Downers Grove DGMidTown 09/02 03:52:26 65.8 63.0 90 0 SSE 0 29.72 0.00
KILBOLIN8 Bolingbrook Bolingbrook Neighborhood Weather 09/02 03:55:02 67.7 66.0 93 0 West 0 29.85 0.00
KILBOLIN16 Bolingbrook Huntington Estates 09/02 03:55:08 68.5 66.0 93 1 NNW 2 29.84 0.00
KILWESTC8 West Chicago Ingalton Hills Estates 09/02 03:55:08 66.0 66.0 99 0 SW 0 29.95 0.00
KILDARIE3 Darien Darien, Near 75th St and Lemont Rd (60561) 09/02 03:54:16 68.2 62.0 81 0 SSE 0 29.71 0.00
KDPA Chicago DuPage Official Station 09/02 03:49:00 66.0 64.0 94 5 South --- 29.88 ---
KLOT Romeoville Official Station 09/02 03:35:00 67.0 67.0 98 4 West --- 29.88 ---
Full Advisory Text
No Warnings

Ambient Weather and Weather Underground
 Never base important decisions on this or any weather information obtained from the Internet
Updated Automatically by Ambient Weather's Virtual Weather Station  V14.01